Sandpoint, ID

8:51 PM PST on February 22, 2017 (GMT -0800)
Sandpoint

Weather History for KSZT - March, 2014

Change the Weather History Date:

Wednesday, March 12, 2014

  Actual Average Record
Temperature  
Mean Temperature 38 °F -  
Max Temperature 50 °F 45 °F 60 °F (1934)
Min Temperature 26 °F 28 °F 1 °F (1932)
Degree Days  
Heating Degree Days 27    
Moisture  
Dew Point 31 °F    
Average Humidity 85    
Maximum Humidity 100    
Minimum Humidity 43    
Precipitation  
Precipitation 0.00 in - - ()
Sea Level Pressure  
Sea Level Pressure 30.31 in    
Wind  
Wind Speed 1 mph (ESE)    
Max Wind Speed 10 mph    
Max Gust Speed -    
Visibility 7 miles    
Events Fog    
Averages and records for this station are not official NWS values.
T = Trace of Precipitation, MM = Missing Value Source: NWS Daily Summary

Daily Weather History Graph

Daily Weather History Graph

Search for Another Location

Airport or City:

Trip Planner

Search our weather history database for the weather conditions in past years. The results will help you decide how hot, cold, wet, or windy it might be!

Date:

Astronomy

Mar. 12, 2014 Rise Set
Actual Time 7:05 AM PDT 6:47 PM PDT
Civil Twilight 6:34 AM PDT 7:18 PM PDT
Nautical Twilight 5:58 AM PDT 7:54 PM PDT
Astronomical Twilight 5:21 AM PDT 8:31 PM PDT
Moon 3:09 PM PDT (3/12) 4:53 AM PDT (3/12)
Length of Visible Light 12h 44m
Length of Day
11h 41m
Waxing Gibbous, 86% of the Moon is Illuminated
Mar 12
Waxing Gibbous
Mar 16
Full
Mar 23
Last Quarter
Mar 30
New
Apr 7
First Quarter

Hourly Weather History & Observations

Time (PDT) Temp. Windchill Dew Point Humidity Pressure Visibility Wind Dir Wind Speed Gust Speed Precip Events Conditions
12:15 AM 30.2 °F - 30.2 °F 100% 30.46 in 10.0 mi Calm Calm - N/A   Clear
12:35 AM 30.2 °F - 30.2 °F 100% 30.46 in 10.0 mi Calm Calm - N/A   Clear
12:55 AM 30.2 °F - 30.2 °F 100% 30.46 in 10.0 mi Calm Calm - N/A   Clear
1:15 AM 30.2 °F - 30.2 °F 100% 30.46 in 10.0 mi Calm Calm - N/A   Scattered Clouds
1:35 AM 30.2 °F - 30.2 °F 100% 30.46 in 7.0 mi Calm Calm - N/A   Scattered Clouds
1:55 AM 30.2 °F - 30.2 °F 100% 30.46 in 2.0 mi Calm Calm - N/A   Scattered Clouds
2:15 AM 28.4 °F - 28.4 °F 100% 30.46 in 7.0 mi Calm Calm - N/A   Clear
2:35 AM 28.4 °F 24.6 °F 28.4 °F 100% 30.45 in 10.0 mi West 3.5 mph - N/A   Clear
2:55 AM 28.4 °F - 28.4 °F 100% 30.45 in 10.0 mi Calm Calm - N/A   Scattered Clouds
3:15 AM 28.4 °F - 28.4 °F 100% 30.44 in 1.5 mi Calm Calm - N/A   Mist
3:35 AM 28.4 °F - 28.4 °F 100% 30.44 in 2.0 mi Calm Calm - N/A   Overcast
3:55 AM 28.4 °F - 28.4 °F 100% 30.44 in 0.5 mi Calm Calm - N/A Fog Light Freezing Fog
4:15 AM 28.4 °F - 28.4 °F 100% 30.44 in 0.2 mi Calm Calm - N/A Fog Light Freezing Fog
4:35 AM 28.4 °F - 28.4 °F 100% 30.44 in 0.2 mi Calm Calm - N/A Fog Light Freezing Fog
4:55 AM 28.4 °F - 28.4 °F 100% 30.45 in 1.0 mi Calm Calm - N/A   Overcast
5:15 AM 28.4 °F - 28.4 °F 100% 30.45 in 1.0 mi Calm Calm - N/A   Overcast
5:35 AM 28.4 °F - 28.4 °F 100% 30.45 in 7.0 mi Calm Calm - N/A   Mostly Cloudy
5:55 AM 26.6 °F - 26.6 °F 100% 30.45 in 10.0 mi Calm Calm - N/A   Scattered Clouds
6:15 AM 26.6 °F - 26.6 °F 100% 30.45 in 10.0 mi Calm Calm - N/A   Mostly Cloudy
6:35 AM 26.6 °F - 26.6 °F 100% 30.45 in 0.8 mi Calm Calm - N/A   Overcast
6:55 AM 26.6 °F - 26.6 °F 100% 30.45 in 0.2 mi Calm Calm - N/A Fog Light Freezing Fog
7:15 AM 26.6 °F - 26.6 °F 100% 30.44 in 0.2 mi Calm Calm - N/A Fog Light Freezing Fog
7:35 AM 28.4 °F - 28.4 °F 100% 30.44 in 0.2 mi Calm Calm - N/A Fog Light Freezing Fog
7:55 AM - - - N/A% 30.44 in 0.2 mi Calm Calm - N/A Fog Fog
8:15 AM - - - N/A% 30.44 in 0.2 mi Calm Calm - N/A Fog Fog
8:35 AM - - - N/A% 30.44 in 0.2 mi Calm Calm - N/A Fog Fog
8:55 AM - - - N/A% 30.44 in 0.2 mi Calm Calm - N/A Fog Fog
9:15 AM - - - N/A% 30.43 in 0.2 mi Calm Calm - N/A Fog Fog
9:35 AM - - - N/A% 30.43 in 0.2 mi Calm Calm - N/A Fog Fog
9:55 AM - - - N/A% 30.43 in 0.2 mi Calm Calm - N/A Fog Fog
10:15 AM - - - N/A% 30.42 in 0.8 mi Calm Calm - N/A   Overcast
10:35 AM 33.8 °F - 33.8 °F 100% 30.41 in 10.0 mi Calm Calm - N/A   Mostly Cloudy
10:55 AM 35.6 °F - 35.6 °F 100% 30.41 in 10.0 mi Calm Calm - N/A   Scattered Clouds
11:15 AM 37.4 °F - 37.4 °F 100% 30.40 in 10.0 mi Calm Calm - N/A   Clear
11:35 AM 39.2 °F - 35.6 °F 87% 30.39 in 10.0 mi Calm Calm - N/A   Clear
11:55 AM 41.0 °F 38.0 °F 33.8 °F 76% 30.38 in 10.0 mi SE 4.6 mph - N/A   Clear
12:15 PM 41.0 °F 37.1 °F 32.0 °F 70% 30.37 in 10.0 mi SE 5.8 mph - N/A   Clear
12:35 PM 41.0 °F 38.0 °F 32.0 °F 70% 30.35 in 10.0 mi ESE 4.6 mph - N/A   Clear
12:55 PM 42.8 °F 40.1 °F 32.0 °F 66% 30.34 in 10.0 mi ESE 4.6 mph - N/A   Clear
1:15 PM 46.4 °F 42.4 °F 32.0 °F 57% 30.32 in 10.0 mi ESE 8.1 mph - N/A   Clear
1:35 PM 46.4 °F 42.4 °F 32.0 °F 57% 30.31 in 10.0 mi ESE 8.1 mph - N/A   Clear
1:55 PM 46.4 °F 41.5 °F 32.0 °F 57% 30.30 in 10.0 mi ESE 10.4 mph - N/A   Clear
2:15 PM 46.4 °F 41.9 °F 32.0 °F 57% 30.28 in 10.0 mi ESE 9.2 mph - N/A   Clear
2:35 PM 46.4 °F 41.5 °F 32.0 °F 57% 30.27 in 10.0 mi ESE 10.4 mph - N/A   Clear
2:55 PM 46.4 °F 41.9 °F 32.0 °F 57% 30.25 in 10.0 mi ESE 9.2 mph - N/A   Clear
3:15 PM 48.2 °F - 30.2 °F 50% 30.24 in 10.0 mi ESE 9.2 mph - N/A   Clear
3:35 PM 48.2 °F - 30.2 °F 50% 30.23 in 10.0 mi ESE 9.2 mph - N/A   Clear
3:55 PM 48.2 °F - 30.2 °F 50% 30.22 in 10.0 mi ESE 6.9 mph - N/A   Clear
4:15 PM 50.0 °F - 30.2 °F 47% 30.21 in 10.0 mi ESE 8.1 mph - N/A   Clear
4:35 PM 50.0 °F - 30.2 °F 47% 30.20 in 10.0 mi East 5.8 mph - N/A   Clear
4:55 PM 50.0 °F - 30.2 °F 47% 30.18 in 10.0 mi East 3.5 mph - N/A   Clear
5:15 PM 50.0 °F - 28.4 °F 43% 30.17 in 10.0 mi Calm Calm - N/A   Clear
5:35 PM 50.0 °F - 28.4 °F 43% 30.16 in 10.0 mi Calm Calm - N/A   Clear
5:55 PM 48.2 °F - 32.0 °F 54% 30.16 in 10.0 mi Calm Calm - N/A   Clear
6:15 PM 44.6 °F - 33.8 °F 66% 30.15 in 10.0 mi Calm Calm - N/A   Clear
6:35 PM 41.0 °F - 32.0 °F 70% 30.14 in 10.0 mi Calm Calm - N/A   Clear
6:55 PM 37.4 °F 34.9 °F 32.0 °F 81% 30.13 in 10.0 mi West 3.5 mph - N/A   Clear
7:15 PM 35.6 °F 32.8 °F 32.0 °F 87% 30.12 in 10.0 mi WNW 3.5 mph - N/A   Clear
7:35 PM 33.8 °F - 32.0 °F 93% 30.11 in 10.0 mi Calm Calm - N/A   Clear
7:55 PM 33.8 °F - 32.0 °F 93% 30.12 in 10.0 mi Calm Calm - N/A   Clear
8:15 PM 32.0 °F - 32.0 °F 100% 30.11 in 10.0 mi Calm Calm - N/A   Clear
8:35 PM 32.0 °F - 32.0 °F 100% 30.11 in 10.0 mi Calm Calm - N/A   Clear
8:55 PM 32.0 °F - 32.0 °F 100% 30.11 in 10.0 mi Calm Calm - N/A   Clear
9:15 PM 32.0 °F - 32.0 °F 100% 30.11 in 10.0 mi Calm Calm - N/A   Clear
9:35 PM 32.0 °F - 32.0 °F 100% 30.11 in 10.0 mi Calm Calm - N/A   Clear
9:55 PM 30.2 °F - 30.2 °F 100% 30.11 in 10.0 mi Calm Calm - N/A   Clear
10:15 PM 30.2 °F - 30.2 °F 100% 30.11 in 10.0 mi Calm Calm - N/A   Clear
10:35 PM 30.2 °F - 30.2 °F 100% 30.10 in 10.0 mi Calm Calm - N/A   Clear
10:55 PM 30.2 °F - 30.2 °F 100% 30.09 in 10.0 mi Calm Calm - N/A   Clear
11:15 PM 30.2 °F - 30.2 °F 100% 30.08 in 10.0 mi Calm Calm - N/A   Clear
11:35 PM 30.2 °F - 30.2 °F 100% 30.08 in 10.0 mi Calm Calm - N/A   Clear
11:55 PM 30.2 °F - 30.2 °F 100% 30.09 in 10.0 mi Calm Calm - N/A   Clear